Regional Weather Roundup
Issued by NWS Charleston, SC

Current Version | Previous Version | Graphics & Text | Print | Product List | Glossary On
Versions: 1 2 3 4 5 6 7 8 9 10 11 12 13 14 15 16 17 18 19 20 21 22 23 24 25 26 27 28 29 30 31 32 33 34 35 36 37 38 39 40 41 42 43 44 45 46 47 48 49 50
000
ASUS42 KCHS 011226
RWRCHS

REGIONAL WEATHER ROUNDUP
NATIONAL WEATHER SERVICE CHARLESTON SC
700 AM EST SUN FEB 01 2015

NOTE: "FAIR" INDICATES FEW OR NO CLOUDS BELOW 12,000 FEET WITH NO
SIGNIFICANT WEATHER AND/OR OBSTRUCTIONS TO VISIBILITY.

NOT ALL STATIONS ARE QUALITY CONTROLLED BY THE NATIONAL
WEATHER SERVICE. USE DATA WITH CAUTION...ESPECIALLY
DEWPOINT OBSERVATIONS.

SCZ027-030-031-034>040-042>050-011300-
...SOUTHEAST SOUTH CAROLINA...

CITY           SKY/WX    TMP DP  RH WIND       PRES   REMARKS
N CHARLESTON   MOCLDY    38  34  85 CALM      30.32R
6HR MIN TEMP:  36; 6HR MAX TEMP:  41;

WATERFRONT PRK   N/A     46 N/A N/A CALM        N/A
MOUNT PLEASANT FAIR      36  34  93 CALM      30.32R
PINOPOLIS        N/A     43  34  70 CALM      30.22R
MONCKS CORNER  FAIR      36  32  87 CALM      30.31R
SUMMERVILLE    FAIR      36  34  93 CALM      30.33
BEAUFORT MCAS  PTCLDY    39  37  92 CALM      30.30R
6HR MIN TEMP:  37; 6HR MAX TEMP:  41;

BEAUFORT ARPT  FAIR      41  41 100 NE3       30.29S
HILTON HEAD IS PTCLDY    39  37  93 NE6       30.30  WCI  35
WALTERBORO     MOSUNNY   36 N/A N/A E3        30.31S
ALLENDALE      FAIR      36  32  87 CALM      30.28F

...SOUTHERN MIDLANDS AND PEE DEE...

CITY           SKY/WX    TMP DP  RH WIND       PRES   REMARKS
GEORGETOWN     NOT AVBL
KINGSTREE      NOT AVBL
ORANGEBURG     CLOUDY    36  29  75 CALM      30.29S
6HR MIN TEMP:  35; 6HR MAX TEMP:  40;

BARNWELL         N/A     36  32  87 CALM      30.29R
AIKEN          FAIR      36  30  80 CALM      30.30S
MANNING        FAIR      37  34  87 CALM      30.32R
COLUMBIA       CLOUDY    39  30  70 CALM      30.29R
6HR MIN TEMP:  38; 6HR MAX TEMP:  43;

SUMTER         CLOUDY    37  29  72 SE2       30.28R
6HR MIN TEMP:  37; 6HR MAX TEMP:  39;

FLORENCE       CLOUDY    37  31  78 SW5       30.31R WCI  33
6HR MIN TEMP:  37; 6HR MAX TEMP:  39;

MYRTLE BEACH   MOCLDY    37  32  81 CALM      30.34R
N MYRTLE BEACH CLOUDY    36  30  79 CALM      30.32R
6HR MIN TEMP:  31; 6HR MAX TEMP:  36;


$$

GAZ063-065-086>088-099>101-113>116-118-119-134>141-150-011300-
...SOUTHEAST GEORGIA...

CITY           SKY/WX    TMP DP  RH WIND       PRES   REMARKS
SAVANNAH ARPT  PTCLDY    37  35  92 CALM      30.29S
6HR MIN TEMP:  36; 6HR MAX TEMP:  42;

HUNTER AAF     PTCLDY    39  38  97 E2        30.26S
6HR MIN TEMP:  38; 6HR MAX TEMP:  41;

FORT STEWART   CLEAR     36  33  92 CALM      30.26F
6HR MIN TEMP:  35; 6HR MAX TEMP:  37;

STATESBORO     PTCLDY    33  33 100 CALM      30.28S
SYLVANIA       MOSUNNY   34  34  99 CALM      30.28F
CLAXTON        FAIR      32  32 100 CALM      30.28S

...CSRA...CENTRAL AND FAR SOUTHEAST GEORGIA...

CITY           SKY/WX    TMP DP  RH WIND       PRES   REMARKS
THOMSON        MOCLDY    38  34  84 CALM      30.31R
AUGUSTA-BUSH   MOCLDY    35  29  78 CALM      30.28R
6HR MIN TEMP:  33; 6HR MAX TEMP:  44;

AUGUSTA-DANIEL MOCLDY    42  28  57 SE5       30.27R
SWAINSBORO     FAIR      41  30  65 E3        30.27R
VIDALIA        CLEAR     37  36  93 E3        30.26S
EASTMAN          N/A     32  32 100 CALM      30.28S FOG
HAZLEHURST     FAIR      43  40  88 SE3       30.24S
ALMA           CLEAR     42  38  85 E5        30.25R
6HR MIN TEMP:  36; 6HR MAX TEMP:  43;

WAYCROSS       CLEAR     44  43  94 E3        30.25S
JESUP          FAIR      37  37 100 CALM      30.27R
BAXLEY         FAIR      43  39  87 E3        30.25S
BRUNSWICK      CLEAR     39  37  93 CALM      30.28S
SAINT SIMONS   CLEAR     46  44  93 CALM      30.27R
6HR MIN TEMP:  45; 6HR MAX TEMP:  50;


$$

SCZ027-028-034-036>038-045-046-048>050-GAZ119-141-011300-
...LAKE AND SUPPLEMENTAL COASTAL OBSERVATIONS...

STATION/POSITION TIME  TEMP    WIND        PRES    WAVE   SWELL
                       AIR SEA DIR/SP/G            HT/PER HT/PER/DIR
                 (UTC) (F)     (DEG/KT/KT) (MB)    (FT/S) (FT/S/D)
UPR LAKE MARION  NOT AVBL
WINYAH BAY       1145   38     350/  1     1025.0S
LAKE MURRAY      1200   45     210/  2/  3 1024.7R
ACE BASIN NERRS  NOT AVBL
FORT PULASKI     1200   50 52   90/  4/  5 1026.0R
SAPELO ISLAND    1200   51      80/  6     1025.0S

$$

ANZ835-935-AMZ111-154-330-350-352-354-370-450-454-472-011300-
...C-MAN AND BUOY OBSERVATIONS...

STATION/POSITION TIME  TEMP    WIND        PRES    WAVE   SWELL
                       AIR SEA DIR/SP/G            HT/PER HT/PER/DIR
                 (UTC) (F)     (DEG/KT/KT) (MB)    (FT/S) (FT/S/D)
BUOY 41004       1150   58 70  140/  4/ 10 1026.1R   4/ 8   3/ 8
BUOY 41008       1150   56 54   80/  6/  6 1025.3R   3/10   3/ 80/10
FOLLY BEACH CMAN 1200   51      80/  4/  5 1026.9R
CAPERS NEARSHORE 1100   51      70/  4/  4   N/A
FRIPP NEARSHORE  1100   52      90/  6/  6 1024.7R


STATION/POSITION TIME  TEMP    WIND        PRES    WAVE   SWELL
                       AIR SEA DIR/SP/G            HT/PER HT/PER/DIR
                 (UTC) (F)     (DEG/KT/KT) (MB)    (FT/S) (FT/S/D)
5E ST. MARYS GA  1121      56                N/A     3/11   2/ 80/11
FRYING PAN BUOY  1150   53 63   CALM  /  4 1027.7R   2/11   2/ 80/11
BUOY 41025       1150   52 71  270/ 16/ 19 1026.2R   6/10   7/ 70/10
CAPE LOOKOUT NC  1200   47     270/  7/  9 1026.5F
BUOY 41002       1150   57 69   10/  4/ 10 1027.6R   9/11   8/ 20/11
BUOY 41010       1120   65 74  120/  8/ 12 1025.4R
ST AUGUSTINE FL  1200   51     350/  5/  5 1025.0R


$$



USA.gov is the U.S. government's official web portal to all federal, state and local government web resources and services.